Regional Weather Roundup
Issued by NWS Charleston, SC

Current Version | Previous Version | Graphics & Text | Print | Product List | Glossary On
Versions: 1 2 3 4 5 6 7 8 9 10 11 12 13 14 15 16 17 18 19 20 21 22 23 24 25 26 27 28 29 30 31 32 33 34 35 36 37 38 39 40 41 42 43 44 45 46 47 48 49 50
000 ASUS42 KCHS 202127 RWRCHS REGIONAL WEATHER ROUNDUP NATIONAL WEATHER SERVICE CHARLESTON SC 400 PM EST MON NOV 20 2017 NOTE: "FAIR" INDICATES FEW OR NO CLOUDS BELOW 12,000 FEET WITH NO SIGNIFICANT WEATHER AND/OR OBSTRUCTIONS TO VISIBILITY. NOT ALL STATIONS ARE QUALITY CONTROLLED. USE DATA WITH CAUTION... ESPECIALLY DEWPOINT OBSERVATIONS. SCZ027-030-031-034>040-042>050-202200- ...SOUTHEAST SOUTH CAROLINA... CITY SKY/WX TMP DP RH WIND PRES REMARKS N CHARLESTON CLOUDY 59 32 36 NE6 30.22S WATERFRONT PRK NOT AVBL JOHNS ISLAND FAIR 57 39 51 E7 30.23S PINOPOLIS N/A 57 37 47 VRB2 30.14S MONCKS CORNER FAIR 55 34 44 CALM 30.22F SUMMERVILLE FAIR 59 34 38 CALM 30.23S BEAUFORT MCAS MOSUNNY 59 40 49 E8 30.23R BEAUFORT ARPT FAIR 55 37 50 E7 30.23R HILTON HEAD IS SUNNY 57 39 51 NE7 30.23S WALTERBORO PTCLDY 59 30 33 NE3 30.23R ALLENDALE FAIR 59 32 36 CALM 30.21R ...SOUTHERN MIDLANDS AND PEE DEE... CITY SKY/WX TMP DP RH WIND PRES REMARKS GEORGETOWN FAIR 54 36 50 SE6 30.25R KINGSTREE FAIR 54 34 47 CALM 30.23S ORANGEBURG CLOUDY 58 30 34 SE5 30.22S BARNWELL N/A 61 32 33 E5 30.21F AIKEN FAIR 57 27 30 SE7 30.24S MANNING FAIR 55 41 58 MISG 30.23S COLUMBIA MOSUNNY 62 26 25 SE6 30.21S SUMTER SUNNY 60 24 25 SE5 30.20S FLORENCE SUNNY 60 22 23 E3 30.24R MYRTLE BEACH SUNNY 57 36 45 SE5 30.25R N MYRTLE BEACH SUNNY 58 32 37 S3 30.23R $$ GAZ063-065-086>088-099>101-113>116-118-119-134>141-150-202200- ...SOUTHEAST GEORGIA... CITY SKY/WX TMP DP RH WIND PRES REMARKS SAVANNAH ARPT PTSUNNY 60 44 55 SE9 30.22R HUNTER AAF MOSUNNY 59 45 58 NE7 30.19R FORT STEWART MOSUNNY 62 46 55 E8 30.19R STATESBORO MOSUNNY 62 28 28 CALM 30.21S SYLVANIA CLOUDY 60 36 39 CALM 30.22R CLAXTON FAIR 64 37 37 NE5 30.21R ...CSRA...CENTRAL AND FAR SOUTHEAST GEORGIA... CITY SKY/WX TMP DP RH WIND PRES REMARKS THOMSON CLOUDY 59 30 33 S3 30.25S AUGUSTA-BUSH CLOUDY 61 27 27 VRB3 30.20S AUGUSTA-DANIEL CLOUDY 60 28 29 S5 30.21S SWAINSBORO FAIR 61 32 33 E6 30.20S VIDALIA SUNNY 63 37 39 SE5 30.19S EASTMAN FAIR 65 11 12 E6 30.21R HAZLEHURST FAIR 64 18 17 E3 30.17S ALMA SUNNY 67 47 48 NE5 30.16S WAYCROSS PTSUNNY 67 49 53 E6 30.16S JESUP FAIR 64 46 52 E10 30.19S BAXLEY FAIR 63 43 48 NE8 30.17S BRUNSWICK SUNNY 63 48 59 NE14 30.20R SAINT SIMONS SUNNY 65 52 62 NE13 30.18R $$ SCZ027-028-034-036>038-045-046-048>050-GAZ119-141-202200- ...LAKE AND SUPPLEMENTAL COASTAL OBSERVATIONS... STATION/POSITION TIME TEMP WIND PRES WAVE SWELL AIR SEA DIR/SP/G HT/PER HT/PER/DIR (UTC) (F) (DEG/KT/KT) (MB) (FT/S) (FT/S/D) WINYAH BAY 2045 56 110/ 4 1024.0S LAKE MURRAY 2030 62 CALM 1022.4F ACE BASIN NERRS 2045 58 110/ 3 1023.0S FORT PULASKI 2100 56 61 60/ 11/ 14 1023.8 SAPELO ISLAND 2100 63 50/ 10 1022.0 $$ ANZ835-935-AMZ111-154-330-350-352-354-370-450-454-472-202200- ...C-MAN AND BUOY OBSERVATIONS... STATION/POSITION TIME TEMP WIND PRES WAVE SWELL AIR SEA DIR/SP/G HT/PER HT/PER/DIR (UTC) (F) (DEG/KT/KT) (MB) (FT/S) (FT/S/D) BUOY 41004 2110 60 73 50/ 14/ 17 1023.1 BUOY 41008 2050 63 68 70/ 14/ 16 1022.1R 3/ 5 2/100/ 8 FOLLY BEACH CMAN 2100 56 70/ 10/ 11 1024.3F CAPERS NEARSHORE 2108 55 62 80/ 12/ 17 1023.5F FRIPP NEARSHORE 2108 56 61 60/ 12/ 17 1022.9R STATION/POSITION TIME TEMP WIND PRES WAVE SWELL AIR SEA DIR/SP/G HT/PER HT/PER/DIR (UTC) (F) (DEG/KT/KT) (MB) (FT/S) (FT/S/D) 5E ST. MARYS GA 2100 67 N/A 4/ 5 FRYING PAN BUOY 2110 56 69 20/ 8/ 12 1024.0 BUOY 41025 2110 53 66 350/ 10/ 14 1024.2 CAPE LOOKOUT NC 2100 360/ 4/ 4 1024.3R BUOY 41002 2050 67 77 40/ 14/ 19 1021.7R 6/ 8 5/ 8 BUOY 41010 NOT AVBL ST AUGUSTINE FL 2100 70 68 90/ 13/ 15 1020.6F $$

USA.gov is the U.S. government's official web portal to all federal, state and local government web resources and services.